Regional Weather Roundup
Issued by NWS

Home | Current Version | Previous Version | Graphics & Text | Print | Product List | Glossary Off
Versions: 1 2 3 4 5 6 7 8 9 10 11 12 13 14 15 16 17 18 19 20 21 22 23 24 25 26 27 28 29 30 31 32 33 34 35 36 37 38 39 40 41 42 43 44 45 46 47 48 49 50

000
ASUS43 KMPX 281810
RWRMN
WEATHER ROUNDUP FOR MINNESOTA
NATIONAL WEATHER SERVICE TWIN CITIES/CHANHASSEN MN
100 PM CDT SAT MAR 28 2015


NOTE: "FAIR" INDICATES FEW OR NO CLOUDS BELOW 12,000 FEET WITH NO
SIGNIFICANT WEATHER AND/OR OBSTRUCTIONS TO VISIBILITY. N/A MEANS
CURRENT SKY AND/OR WEATHER CONDITIONS ARE NOT AVAILABLE.

MNZ060>063-068>070-281900-
   Twin Cities Metro

CITY           SKY/WX    TMP DP  RH WIND       PRES   REMARKS
TWIN CITIES    SUNNY     39  14  36 SE15      30.22F
6HR MIN TEMP:  20; 6HR MAX TEMP:  39;

ST PAUL        SUNNY     40  15  36 SE12G21   30.23F
CRYSTAL        SUNNY     40  14  34 SE13      30.20F
BLAINE         MOSUNNY   41  14  33 S13G18    30.20F
LAKEVILLE      SUNNY     34  19  55 SE8       30.22F WCI  27
EDEN PRAIRIE   SUNNY     39  16  39 S13       30.21F
6HR MIN TEMP:  20; 6HR MAX TEMP:  41;

SOUTH ST PAUL  SUNNY     38  14  36 S10G16    30.23F
LAKE ELMO      FAIR      39  16  38 S13       30.23F
$$
MNZ001>005-007-008-013>017-022>024-027-028-281900-
   Northwest Minnesota

CITY           SKY/WX    TMP DP  RH WIND       PRES   REMARKS
BEMIDJI        SUNNY     40  18  40 S17G24    30.04F
HALLOCK        PTSUNNY   43  28  56 S26G32    29.93F
ROSEAU         MOSUNNY   41  27  56 S23       29.97F
WARROAD        MOSUNNY   41  25  52 S13G22    29.98F
THIEF RVR FALL MOSUNNY   41  27  56 S21G26    29.99F
CROOKSTON      MOSUNNY   45  27  49 S26G32    30.00F
FOSSTON        MOSUNNY   39  21  48 S24G32    30.01F
DETROIT LAKES  MOSUNNY   41  27  56 S21       30.05F
MOORHEAD       MOSUNNY   43  27  52 S22G29    30.04F
PARK RAPIDS    SUNNY     43  20  39 S20G25    30.05F
MAHNOMEN       FAIR      41  25  52 S20G29    30.02F
$$
MNZ006-009>011-018-025>026-281900-
   North Central Minnesota

CITY           SKY/WX    TMP DP  RH WIND       PRES   REMARKS
BAUDETTE       MOSUNNY   40  17  39 S16G24    30.00F
FLAG ISLAND    MOSUNNY   30  21  69 SE15      29.97F WCI  19
INTL FALLS     SUNNY     41  11  29 S9G25     30.03F
6HR MIN TEMP:  13; 6HR MAX TEMP:  41;

WASKISH        SUNNY     41  18  38 S7G18     30.03F
BIG FORK       SUNNY     43  12  28 S14G22    30.06F
LONGVILLE      SUNNY     39  14  35 S14G21    30.09F
GRAND RAPIDS   SUNNY     37   7  28 S17G25    30.10F
CRANE LAKE     SUNNY     37   1  22 S9G17     30.09F
ORR            SUNNY     39   3  22 SW13G20   30.06F
COOK           SUNNY     37   9  30 S13       30.09F
WALKER         FAIR      38  16  39 S13G20    30.05F
$$
MNZ012-019>021-037-281900-
   Northeast Minnesota

CITY           SKY/WX    TMP DP  RH WIND       PRES   REMARKS
DULUTH         SUNNY     39   8  27 S16       30.13F
6HR MIN TEMP:  13; 6HR MAX TEMP:  39;

ELY            SUNNY     37   3  23 SW9G18    30.09F
HIBBING        SUNNY     40   5  23 S13       30.09F
EVELETH        SUNNY     37   5  25 S13G22    30.11F
DULUTH HARBOR  SUNNY     34  23  64 CALM      30.18F
TWO HARBORS    SUNNY     41  16  36 S14G21    30.14F
SILVER BAY     SUNNY     37   9  30 S15G25    30.13F
GRAND MARAIS     N/A     29  19  66 SW5       30.19F WCI  24
G MARAIS ARPRT SUNNY     32   7  34 S9G16     30.12F WCI  24
$$
MNZ029>031-032-039>041-046>048-054>057-064-281900-
   West Central Minnesota

CITY           SKY/WX    TMP DP  RH WIND       PRES   REMARKS
FERGUS FALLS   PTSUNNY   39  21  48 S22G29    30.09F
WHEATON        MOSUNNY   39  27  60 SE23      30.08F
MORRIS         SUNNY     39  28  65 S18       30.08F
ALEXANDRIA     MOSUNNY   38  25  59 S20G25    30.11F
ELBOW LAKE     PTSUNNY   40  26  57 S23G29    30.07F
WADENA         MOSUNNY   39  23  52 S18       30.08F
GLENWOOD       MOSUNNY   39  27  60 S17G25    30.12F
APPLETON       SUNNY     43  27  52 S12G21    30.10F
BENSON         MOSUNNY   43  27  52 S17       30.12F
ORTONVILLE     MOSUNNY   43  27  52 S18G30    30.07F
MADISON        MOSUNNY   45  27  49 S14G26    30.09F
WILLMAR        FAIR      39  27  60 S15G24    30.15F
$$
MNZ033>034-036-042>043-049>051-058-059-281900-
   Central Minnesota

CITY           SKY/WX    TMP DP  RH WIND       PRES   REMARKS
ST CLOUD       SUNNY     40  17  39 S15G25    30.16F
6HR MIN TEMP:  17; 6HR MAX TEMP:  41;

SAUK CENTRE    FAIR      38  23  54 S17       30.13F
PAYNESVILLE    SUNNY     35  20  54 E12G22    30.16F WCI  27
AITKIN         SUNNY     43  10  26 S13G18    30.12F
PINE RIVER     SUNNY     39  19  45 S14       30.13F
BRAINERD       SUNNY     39  15  37 S15G24    30.12F
STAPLES        MOSUNNY   39  19  45 S20G25    30.10F
LONG PRAIRIE   FAIR      37  27  65 S18G25    30.13F
LITTLE FALLS   SUNNY     39  18  41 S13G23    30.14F
LITCHFIELD     SUNNY     39  21  48 SE8G17    30.18F
BUFFALO        SUNNY     39  14  35 S12G18    30.21F
MAPLE LAKE     SUNNY     41  19  41 S10G20    30.19F
$$
MNZ037-044-045-052-053-281900-
   East Central Minnesota

CITY           SKY/WX    TMP DP  RH WIND       PRES   REMARKS
PRINCETON      SUNNY     43  16  33 SE10G17   30.18F
MORA           SUNNY     37  14  38 S10       30.19F
CAMBRIDGE      SUNNY     43  21  42 S12       30.17F
RUSH CITY      SUNNY     39   9  29 S7        30.19F
MOOSE LAKE     SUNNY     37   9  30 S9G18     30.14F
HINCKLEY       FAIR      37  10  32 S12       30.18F
CLOQUET        SUNNY     37   1  22 S12G20    30.13F
MCGREGOR       SUNNY     37  10  32 SW13G21   30.14F
$$
MNZ071>073-080-081-089-090-097-098-281900-
   Southwest Minnesota

CITY           SKY/WX    TMP DP  RH WIND       PRES   REMARKS
MONTEVIDEO     MOSUNNY   43  30  61 S12G18    30.13F
GRANITE FALLS  MOSUNNY   42  29  61 S17G23    30.15F
CANBY          SUNNY     44  26  48 S14G22    30.10F
MARSHALL       PTSUNNY   43  25  49 S22       30.13S
REDWOOD FALLS  MOSUNNY   42  25  50 S18G26    30.15F
OLIVIA         PTSUNNY   37  25  60 S15G21    30.15F
PIPESTONE      MOSUNNY   41  28  60 S17       30.08F
WINDOM         MOSUNNY   39  27  60 S12G20    30.14F
WORTHINGTON    PTSUNNY   43  27  52 S17       30.14F
JACKSON        SUNNY     41  23  48 S12G22    30.16F
TRACY          PTSUNNY   41  31  68 S16       30.13F
SLAYTON        CLOUDY    39  26  60 S16       30.12F
$$
MNZ065>067-074>077-082>085-091>093-281900-
   South Central Minnesota

CITY           SKY/WX    TMP DP  RH WIND       PRES   REMARKS
MANKATO        SUNNY     39  19  45 S12G21    30.21F
NEW ULM        SUNNY     41  18  38 S14G23    30.18F
ST JAMES       SUNNY     43  21  42 S15G22    30.18F
FAIRMONT       SUNNY     39   9  28 S17G26    30.18F
GLENCOE        SUNNY     38  24  56 SE8       30.19F
FARIBAULT      SUNNY     37  19  48 S12       30.23F
OWATONNA       SUNNY     36  19  51 S8        30.22F
WASECA         SUNNY     37  19  48 S12       30.23F
ALBERT LEA     SUNNY     39  16  38 S9        30.21F
$$
MNZ078>079-086>088-094>096-281900-
   Southeast Minnesota

CITY           SKY/WX    TMP DP  RH WIND       PRES   REMARKS
ROCHESTER      SUNNY     31  18  58 S12       30.25F WCI  22
6HR MIN TEMP:  14; 6HR MAX TEMP:  31;

RED WING       SUNNY     39  12  33 SW8       30.25F
STANTON        SUNNY     35  19  51 S12       30.23F WCI  27
DODGE CENTER   SUNNY     32  23  69 SE10      30.23F WCI  24
WINONA         SUNNY     37  14  38 S6        30.29F
AUSTIN         SUNNY     36  18  48 SE8       30.23F
PRESTON        SUNNY     32  19  58 S9        30.26F WCI  24
$$
ABBREVIATIONS USED IN REMARKS
   TC - TEMPERATURES IN CELSIUS
  WCI - WIND CHILL INDEX
   HX - HEAT INDEX
  VSB - VISIBILITY
$$


USA.gov is the U.S. government's official web portal to all federal, state and local government web resources and services.